Location: Ch�teau Gombert
(43.3497°N, 5.4387°E)
Time: 08:34:27
(UTC+00:00)

Daily predictions for brighter satellites

Satellite Brightness Start Highest point End
(mag) Time Altitude Azimuth Time Altitude Azimuth Time Altitude Azimuth
Cosmos 2315 Rocket 4.3 18:33:27 10° S 18:39:48 82° W 18:46:13 10° N
Aureole 3 4.0 18:37:24 10° S 18:42:04 75° E 18:48:07 10° N
GEOS 3 Rocket 3.6 18:36:59 10° SE 18:42:07 79° NE 18:47:21 10° NW
ARGOS Delta rocket 4.2 18:37:26 10° SSE 18:42:40 67° ENE 18:48:06 10° N
Cosmos 1709 Rocket 4.4 18:36:55 10° NNW 18:43:02 69° W 18:49:05 10° S
Cosmos 407 Rocket 4.4 18:38:53 10° SSE 18:43:08 27° E 18:47:23 10° NE
Cosmos 1992 Rocket 4.0 18:40:41 10° NNW 18:45:56 90° WSW 18:51:08 10° SSE
Cosmos 2228 3.7 18:43:03 10° SSE 18:46:52 32° E 18:50:45 10° NNE
Cosmos 1626 4.4 18:46:29 10° NNW 18:49:45 29° W 18:52:59 10° SSW
IRIDIUM 106 4.4 18:44:44 10° N 18:49:53 56° E 18:54:59 10° SSE
Cosmos 1603 3.8 18:44:26 10° SSW 18:50:04 85° WNW 18:55:43 10° NNE
Cosmos 1758 Rocket 3.7 18:46:18 10° N 18:50:32 51° ENE 18:54:43 10° SSE
Cosmos 1461 4.5 18:48:08 10° NNW 18:51:52 25° NE 18:55:35 10° E
STARLINK-29 4.0 18:53:06 10° SSW 18:55:48 26° SE 18:58:32 10° ENE
SJ-6B 3.5 18:51:58 10° SE 18:55:48 39° ENE 18:59:40 10° N
STARLINK-60 3.0 18:54:28 10° SW 18:57:42 64° SE 19:00:58 10° ENE
Cosmos 1606 Rocket 3.9 18:53:36 10° SSE 18:57:49 46° E 19:02:06 10° NNE
ATLAS 5 CENTAUR R/B 2.2 18:54:24 10° S 18:57:59 29° ESE 19:01:51 10° NE
Cosmos 1953 Rocket 4.3 18:54:16 10° N 18:58:25 36° ENE 19:02:32 10° SE
Cosmos 2074 Rocket 4.0 18:53:49 10° N 19:00:05 65° E 19:06:20 10° SSE
Meteor 1-16 Rocket 4.1 18:56:57 10° S 19:02:16 65° E 19:07:47 10° NNE
ADEOS Rocket 4.2 18:56:35 10° N 19:02:37 46° WNW 19:08:05 10° SW
Cosmos 1818 3.6 18:57:26 10° SSW 19:02:52 88° WNW 19:08:20 10° NNE
SL-8 R/B 4.3 19:01:43 10° WNW 19:06:21 50° SW 19:10:43 11° SE
Abrixas rocket 3.4 19:06:26 10° WNW 19:09:07 30° N 19:11:30 12° ENE
ISS -1.2 19:07:29 10° W 19:09:44 17° SW 19:11:58 10° S
Cosmos 1943 Rocket 3.5 19:07:21 10° NW 19:12:29 39° WSW 19:17:38 10° S
NOSS 3-4 (A) 4.0 19:07:13 10° NNW 19:14:08 61° NE 19:20:34 15° SE
NOSS 3-4 (C) 4.0 19:07:19 10° NNW 19:14:14 60° NE 19:20:38 15° SE
FALCON 9 DEB 3.6 19:14:23 10° SSW 19:17:40 39° SE 19:20:15 15° ENE
Cosmos 1300 4.1 19:17:23 18° E 19:17:45 18° E 19:20:25 10° NE
SL-4 R/B 2.3 19:15:14 10° WSW 19:18:33 51° NNW 19:21:55 10° NE
MOS 1 4.3 19:15:40 10° SSE 19:21:19 90° N 19:27:01 10° NNW
Cosmos 2369 Rocket 3.3 19:16:46 10° NW 19:22:09 45° WSW 19:27:27 10° S
Cosmos 1340 Rocket 3.2 19:18:22 10° SSE 19:22:11 41° E 19:26:00 10° NNE
MOS 1 Rocket 4.1 19:19:00 10° NNE 19:24:03 39° E 19:29:07 10° SSE
H-2A R/B 4.4 19:20:08 10° WSW 19:24:49 13° SW 19:27:29 10° SSW
H-2A R/B 2.3 19:19:53 10° S 19:25:05 72° WSW 19:30:12 10° NNW
STARLINK-67 3.7 19:24:05 10° NW 19:26:25 29° NNE 19:27:10 24° ENE
CZ-2C R/B 3.8 19:21:49 10° NNE 19:26:28 58° E 19:31:00 10° S
Cosmos 1703 3.2 19:22:44 10° N 19:26:44 80° E 19:30:41 10° S
Cosmos 1328 3.7 19:23:21 10° N 19:27:23 78° E 19:31:18 10° SSE
CZ-2C R/B 3.1 19:23:00 10° S 19:27:53 73° WSW 19:32:39 10° NNW
Cosmos 1437 4.2 19:29:51 10° NNW 19:32:39 35° W 19:35:27 10° SSW
Cosmos 1908 3.3 19:32:00 10° S 19:35:51 82° W 19:39:45 10° N
SL-08 RB Rocket 3.7 19:31:20 10° SSE 19:35:53 90° WNW 19:40:31 10° NNW
STARLINK-52 2.9 19:33:05 10° SW 19:36:14 56° SE 19:37:28 31° ENE
Resurs 1-3 3.6 19:37:16 22° SSE 19:39:57 60° ENE 19:44:18 10° N
USA 234 3.6 19:37:30 10° ENE 19:43:33 39° SE 19:49:34 10° SSW
Ariane Rocket 4.3 19:41:24 10° SSW 19:46:06 39° W 19:50:51 10° NNW
ATLAS 2AS CENTAUR R/B 2.8 19:38:57 10° NW 19:46:33 87° WSW 19:51:22 22° SSE
STARLINK-1228 3.8 19:44:00 10° NW 19:46:43 33° NNE 19:47:06 32° NE
Cosmos 1140 Rocket 3.3 19:45:30 10° SSW 19:50:40 80° ESE 19:55:52 10° NNE
Cosmos 1656 Rocket 4.5 19:50:25 10° NW 19:55:51 50° WSW 20:00:47 12° S
Cosmos 2341 Rocket 4.1 19:49:51 10° N 19:56:11 62° E 19:59:56 26° SSE
Cosmos 1190 Rocket 4.1 19:51:48 10° SSW 19:57:07 80° WNW 20:02:26 10° NNE
Cosmos 2058 Rocket 3.2 19:53:14 10° SSW 19:57:44 79° W 20:02:16 10° N
Spot 2 Rocket 4.2 19:56:54 32° E 19:58:05 36° ENE 20:02:44 10° N
MetOp-A 4.2 19:55:38 16° S 19:59:57 77° WSW 20:05:20 10° NNW
Meteor 1-11 4.4 19:54:14 10° NNW 19:59:58 72° W 20:05:00 13° S
DMSP B5D2-2 4.0 19:56:33 10° NNE 20:01:49 89° WNW 20:07:03 10° SSW
CZ-2C R/B 2.4 19:57:16 10° NNE 20:02:28 79° ESE 20:07:41 10° S
COSMOS 2455 2.9 19:56:40 10° NNW 20:02:41 68° ENE 20:05:11 36° SE
ARGOS 4.5 20:01:30 10° SSW 20:06:29 38° W 20:11:28 10° NNW
Resurs 01 Rocket 1.5 20:08:29 43° SSE 20:09:55 87° E 20:14:22 10° NNW
Cosmos 2218 Rocket 4.2 20:04:29 10° N 20:10:30 49° ENE 20:12:18 39° ESE
ERBS 4.2 20:09:46 10° NNW 20:12:22 20° NNE 20:12:22 20° NNE
BREEZE-M DEB (TANK) 3.4 20:11:39 10° WNW 20:14:45 25° NNW 20:15:10 24° N
STARLINK-1234 4.1 20:17:35 10° NW 20:19:47 40° NNW 20:19:47 40° NNW
STARLINK-1233 4.2 20:17:36 10° NW 20:19:56 38° NNW 20:19:56 38° NNW
Cosmos 921 Rocket 3.2 20:16:44 10° NNW 20:20:53 64° WSW 20:21:45 50° SSW
STARLINK-1212 4.2 20:18:03 10° NW 20:20:22 37° NNW 20:20:22 37° NNW
STARLINK-1105 4.2 20:18:30 10° NW 20:20:48 37° NNW 20:20:48 37° NNW
STARLINK-1209 4.1 20:18:43 10° NW 20:20:51 40° NW 20:20:51 40° NW
STARLINK-1206 4.2 20:18:59 10° NW 20:21:13 36° NNW 20:21:13 36° NNW
STARLINK-1247 4.3 20:19:26 10° NW 20:21:39 36° NNW 20:21:39 36° NNW
USA 245 4.4 20:21:27 47° ESE 20:22:50 59° ENE 20:29:02 10° N
STARLINK-1227 4.2 20:19:50 10° NW 20:22:06 37° NNW 20:22:06 37° NNW
STARLINK-1218 4.3 20:20:20 10° NW 20:22:31 36° NNW 20:22:31 36° NNW
STARLINK-1226 4.3 20:20:46 10° NW 20:22:58 36° NNW 20:22:58 36° NNW
Cosmos 2181 Rocket 3.9 20:20:34 26° S 20:24:13 76° E 20:30:25 10° N
STARLINK-1254 4.3 20:21:11 10° NW 20:23:24 36° NNW 20:23:24 36° NNW
STARLINK-1215 4.3 20:21:41 10° NW 20:23:49 35° NNW 20:23:49 35° NNW
STARLINK-1231 4.4 20:22:07 10° NW 20:24:15 35° NNW 20:24:15 35° NNW
Cosmos 676 Rocket 4.1 20:20:37 10° SSW 20:25:53 74° WNW 20:31:10 10° NNE
STARLINK-1232 4.4 20:23:03 10° NW 20:25:08 35° NNW 20:25:08 35° NNW
STARLINK-1217 4.4 20:23:28 10° NW 20:25:33 35° NNW 20:25:33 35° NNW
SL-8 Rocket 3.9 20:20:37 10° N 20:26:58 78° E 20:29:12 43° SSE
STARLINK-1208 4.4 20:23:53 10° NW 20:26:00 35° NNW 20:26:00 35° NNW
ERS-1 Rocket 3.9 20:27:20 33° ENE 20:27:20 33° ENE 20:31:32 10° N
BREEZE-M DEB (TANK) 3.7 20:22:53 10° WNW 20:26:31 52° W 20:26:31 52° W
STARLINK-1229 4.5 20:24:22 10° NW 20:26:25 34° NNW 20:26:25 34° NNW
STARLINK-1271 4.5 20:24:49 10° NW 20:26:52 34° NNW 20:26:52 34° NNW
STARLINK-1270 4.5 20:25:17 10° NW 20:27:17 33° NNW 20:27:17 33° NNW
Cosmos 1812 Rocket 3.9 20:29:45 50° NE 20:29:45 50° NE 20:33:09 10° NNE
Cosmos 864 Rocket 4.5 20:23:20 10° N 20:29:30 62° E 20:30:45 51° SE
Cosmos 1656 4.5 20:25:17 10° N 20:30:29 35° NE 20:30:56 35° ENE
Cosmos 1461 3.7 20:26:47 10° NW 20:31:12 49° WSW 20:32:00 44° SSW
Cosmos 1980 Rocket 4.2 20:28:45 10° NNE 20:31:38 14° NE 20:32:34 14° NE
STARLINK-29 4.5 20:28:49 10° W 20:31:20 36° NW 20:31:20 36° NW
SPOT 5 4.2 20:34:13 24° NE 20:34:13 24° NE 20:36:41 10° N
Cosmos 1892 4.1 20:29:43 10° N 20:32:00 30° NNE 20:32:00 30° NNE
Cosmos 220 Rocket 4.2 20:34:28 10° NNW 20:38:14 62° NNE 20:38:14 62° NNE
Cosmos 2366 rocket 3.8 20:33:40 10° N 20:39:50 77° E 20:41:05 58° SSE
Terra 3.3 20:42:27 24° NE 20:42:27 24° NE 20:45:18 10° N
ATLAS 5 CENTAUR R/B 3.3 20:38:40 10° WSW 20:42:29 32° NW 20:46:44 10° NNE
Cosmos 1959 Rocket 4.4 20:39:57 10° N 20:46:19 89° E 20:47:43 57° S
Cosmos 2058 3.7 20:47:44 10° N 20:50:47 49° NNW 20:50:47 49° NNW
SPOT 1/Viking Rocket 3.5 20:52:37 72° NE 20:52:37 72° NE 20:57:37 10° N
Cosmos 192 4.4 20:47:32 10° NNW 20:52:09 77° N 20:52:09 77° N
Cosmos 1300 4.5 20:52:16 26° WSW 20:53:10 30° WNW 20:56:34 10° NNW
Cosmos 1741 Rocket 4.4 20:54:59 53° NE 20:54:59 53° NE 20:59:06 10° NNE
RESURS DK-1 4.2 20:51:04 10° N 20:53:17 24° NNE 20:53:17 24° NNE
SL-4 R/B 4.0 20:55:58 10° WNW 20:58:17 21° NNW 20:58:17 21° NNW
Cosmos 1076 Rocket 4.2 20:55:40 10° NNW 20:59:03 51° NW 20:59:03 51° NW
In-Cosmos 22 Rocket 4.5 20:55:44 10° NNW 21:01:32 67° W 21:02:23 59° SW
Cosmos 1833 Rocket 4.5 21:13:44 20° NE 21:13:44 20° NE 21:15:26 10° NE
Cosmos 1763 Rocket 3.8 21:06:11 10° NNW 21:10:29 61° NNW 21:10:29 61° NNW
Cosmos 489 Rocket 4.5 21:08:50 10° NNW 21:14:41 67° NE 21:14:41 67° NE
BREEZE M DEB (TANK) 3.8 21:12:43 10° W 21:16:40 68° NNW 21:29:53 10° ENE
COSMOS 2406 3.8 21:21:00 50° NNE 21:21:00 50° NNE 21:25:09 10° NNE
Cosmos 540 Rocket 4.5 21:15:46 10° N 21:19:20 39° NNE 21:19:20 39° NNE
Cosmos 1821 Rocket 4.2 21:14:52 10° N 21:20:35 63° NE 21:20:35 63° NE
Meteor 2-10 Rocket 4.3 21:23:20 46° NNE 21:23:20 46° NNE 21:27:05 10° N
USA 234 3.5 21:20:17 10° NE 21:26:46 67° NW 21:33:14 10° WSW
CZ-4C R/B 3.4 21:34:36 10° NNW 21:41:27 47° NE 21:41:59 46° ENE
Cosmos 2369 4.4 21:35:57 10° NNW 21:40:06 48° N 21:40:06 48° N
Cosmos 1697 Rocket 3.5 21:41:42 10° NNW 21:45:47 48° NNW 21:45:47 48° NNW
Mayak 1.6 21:47:33 10° NNE 21:47:47 11° NNE 21:47:47 11° NNE
ATLAS CENTAUR R/B 4.3 21:52:21 10° NNW 21:52:56 14° NNW 21:52:56 14° NNW
SL-16 R/B 4.1 22:01:00 10° N 22:04:14 21° NNE 22:04:14 21° NNE
Cosmos 2322 Rocket 4.2 22:09:30 10° N 22:12:34 20° NNE 22:12:34 20° NNE
Cosmos 1980 Rocket 3.5 22:11:02 10° NNW 22:14:20 36° NNW 22:14:20 36° NNW
Terra 4.0 22:21:20 22° NW 22:21:20 22° NW 22:23:18 10° NNW
Cosmos 2082 Rocket 3.9 22:45:47 28° N 22:45:47 28° N 22:48:34 10° NNE
Cosmos 1833 Rocket 4.5 22:55:22 27° NNW 22:55:22 27° NNW 22:59:04 10° N
Cosmos 2344 4.3 22:47:51 10° NW 22:57:45 88° WSW 22:58:33 81° SSE
CZ-4C R/B 4.1 23:23:07 10° NW 23:27:10 34° WNW 23:27:10 34° WNW
SL-16 R/B 4.3 23:44:19 10° NNW 23:46:04 21° NNW 23:46:04 21° NNW
Cosmos 2360 Rocket 4.1 23:47:56 10° NNW 23:50:15 25° N 23:50:15 25° N
